Regional Weather Roundup
Issued by NWS

Home | Current Version | Previous Version | Graphics & Text | Print | Product List | Glossary On
Versions: 1 2 3 4 5 6 7 8 9 10 11 12 13 14 15 16 17 18 19 20 21 22 23 24 25 26 27 28 29 30 31 32 33 34 35 36 37 38 39 40 41 42 43 44 45 46 47 48 49 50
000
ASUS45 KCYS 260910
RWRWY

WYOMING REGIONAL WEATHER ROUNDUP
NATIONAL WEATHER SERVICE CHEYENNE WY
200 AM MST WED NOV 26 2014

NOTE:  "FAIR" INDICATES FEW OR NO CLOUDS BELOW 12,000 FEET
WITH NO SIGNIFICANT WEATHER AND/OR OBSTRUCTIONS TO VISIBILITY.

WYZ001-261000-
YELLOWSTONE NATIONAL PARK

CITY           SKY/WX    TMP DP  RH WIND       PRES   REMARKS
LK YELLOWSTONE   N/A     32  29  88 VRB6      30.07S WCI  26
W YELLOWSTONE  NOT AVBL

$$
WYZ002>013-054>058-071-098>099-261000-
NORTHERN WYOMING

CITY           SKY/WX    TMP DP  RH WIND       PRES   REMARKS
JACKSON        CLOUDY    39  34  81 SW17G28   30.10S WCI  30
CODY           CLOUDY    25  23  93 S3        30.14S
GREYBULL       FLURRIES  27  26  96 W7        30.18S WCI  19
WORLAND        LGT SNOW  27  26  96 CALM      30.18S FOG
SHERIDAN       CLOUDY    29  20  69 W17       30.15F WCI  17
BUFFALO        FLURRIES  26  18  71 NW12      30.13S WCI  16
GILLETTE       CLOUDY    26  23  88 NW10      30.14R WCI  16
HULETT           N/A    N/A N/A N/A MISG        N/A
NEWCASTLE      CLOUDY    28  23  80 NW12      30.14R WCI  18

$$
WYZ014>020-022>026-101>103-261000-
CENTRAL WYOMING

CITY           SKY/WX    TMP DP  RH WIND       PRES   REMARKS
BIG PINEY      MOCLDY   N/A N/A N/A NW10      30.14R
PINEDALE       CLOUDY    34  32  93 N12       30.13S WCI  25
DUBOIS         LGT SNOW  21  21 100 S8        30.06S WCI  12
LANDER         CLOUDY    26  25  96 CALM      30.11F FOG
RIVERTON       CLOUDY    25  24  96 E5        30.13R WCI  19
CASPER         LGT SNOW  24  21  88 SE5       30.15S FOG     WCI  18
DOUGLAS        LGT SNOW N/A N/A N/A NW10      30.16S

$$
WYZ021-027>030-104>119-261000-
SOUTHERN WYOMING

CITY           SKY/WX    TMP DP  RH WIND       PRES   REMARKS
EVANSTON       PTCLDY    37  31  78 W35G46    30.25R WCI  24
FORT BRIDGER   CLOUDY    39  33  81 W25       30.27S WCI  28
ROCK SPRINGS   CLOUDY    38  31  76 W31G41    30.16R WCI  25
DIXON          CLOUDY    37  28  71 SW13      30.20R WCI  29
RAWLINS        CLOUDY    35  30  82 W22G36    30.08F WCI  23
SARATOGA       CLOUDY    37  32  81 W21G38    30.08F WCI  27
LARAMIE        LGT SNOW  20  18  92 N5        30.06S FOG     WCI  13
CHEYENNE       LGT SNOW  23  17  78 N16       30.09R WCI  10
TORRINGTON     CLOUDY    28  23  81 NW9       30.12R WCI  19
PINE BLUFFS    FLURRIES  27  23  86 NW15G23   30.11R WCI  15

$$



USA.gov is the U.S. government's official web portal to all federal, state and local government web resources and services.